User: anonymous   Login
Location: ??????
(30.5519°N, 47.7720°E)
Time: 19:55:22
(UTC+00:00)
Language:

MOS 1 Rocket - Orbit

View from above orbital plane
View from above orbital plane
View from above satellite
View from above satellite

Ground track
Ground track

The orbit data is extracted from the following two-line orbital elements,

1 17528U 87018B   21111.78109106  .00000163  00000-0  45186-4 0  9993
2 17528  97.4069 290.4713 0150674 215.1586 143.9598 14.51046577782935
Epoch (UTC): 21 April 2021 18:44:46
Eccentricity: 0.0150674
inclination: 97.4069°
perigee height: 615 km
apogee height: 829 km
right ascension of ascending node: 290.4713°
argument of perigee: 215.1586°
revolutions per day: 14.51046577
mean anomaly at epoch: 143.9598°
orbit number at epoch: 78293

The dashed part of the orbit path shows where the satellite is in the earth's shadow,  

DLR